TimeAEST,TemperatureF,Dew PointF,Humidity,Sea Level PressureIn,VisibilityMPH,Wind Direction,Wind SpeedMPH,Gust SpeedMPH,PrecipitationIn,Events,Conditions,WindDirDegrees,DateUTC
12:00 AM,64,55,66,30.10,,SSW,13.8,,,,Overcast,200,2013-07-02 14:00:00
12:00 AM,64.4,55.4,73,30.09,6.2,SSW,13.8,-,N/A,,Mostly Cloudy,200,2013-07-02 14:00:00
12:30 AM,64.4,55.4,73,30.09,6.2,SSW,13.8,-,N/A,,Overcast,200,2013-07-02 14:30:00
1:00 AM,64.4,55.4,73,30.09,6.2,SSW,12.7,-,N/A,,Mostly Cloudy,210,2013-07-02 15:00:00
1:30 AM,64.4,55.4,73,30.09,6.2,SSW,12.7,-,N/A,,Overcast,210,2013-07-02 15:30:00
2:00 AM,64.4,55.4,73,30.09,6.2,SSW,11.5,-,N/A,,Mostly Cloudy,210,2013-07-02 16:00:00
2:30 AM,62.6,55.4,77,30.09,6.2,SSW,11.5,-,N/A,,Mostly Cloudy,210,2013-07-02 16:30:00
3:00 AM,63,56,70,30.10,,SSW,11.5,,,,Overcast,210,2013-07-02 17:00:00
3:00 AM,62.6,55.4,77,30.09,6.2,SSW,11.5,-,N/A,,Overcast,210,2013-07-02 17:00:00
3:30 AM,62.6,55.4,77,30.09,6.2,SSW,12.7,-,N/A,,Mostly Cloudy,210,2013-07-02 17:30:00
4:00 AM,62.6,55.4,77,30.09,6.2,SSW,10.4,-,N/A,,Overcast,210,2013-07-02 18:00:00
4:30 AM,62.6,55.4,77,30.09,6.2,SSW,12.7,-,N/A,,Overcast,200,2013-07-02 18:30:00
5:00 AM,62.6,55.4,77,30.09,6.2,SSW,12.7,-,N/A,,Overcast,210,2013-07-02 19:00:00
5:30 AM,62.6,55.4,77,30.12,6.2,SSW,9.2,-,N/A,,Overcast,210,2013-07-02 19:30:00
6:00 AM,62,55,72,30.14,,SSW,11.5,,,,,210,2013-07-02 20:00:00
6:00 AM,62.6,55.4,77,30.12,6.2,SSW,11.5,-,N/A,,Overcast,210,2013-07-02 20:00:00
6:30 AM,62.6,55.4,77,30.15,6.2,SSW,9.2,-,N/A,,Overcast,200,2013-07-02 20:30:00
7:00 AM,62.6,55.4,77,30.15,6.2,SSW,10.4,-,N/A,,Scattered Clouds,210,2013-07-02 21:00:00
7:30 AM,62.6,55.4,77,30.15,6.2,SSW,9.2,-,N/A,,Unknown,210,2013-07-02 21:30:00
8:00 AM,64.4,55.4,73,30.15,6.2,South,12.7,-,N/A,,Scattered Clouds,190,2013-07-02 22:00:00
8:30 AM,66.2,55.4,68,30.18,6.2,South,12.7,-,N/A,,Unknown,190,2013-07-02 22:30:00
9:00 AM,66,57,64,30.20,,SSW,11.5,,,,,200,2013-07-02 23:00:00
9:00 AM,66.2,57.2,73,30.18,6.2,SSW,11.5,-,N/A,,Unknown,200,2013-07-02 23:00:00
9:30 AM,66.2,57.2,73,30.18,6.2,SSW,12.7,-,N/A,,Mostly Cloudy,210,2013-07-02 23:30:00
10:00 AM,66.2,57.2,73,30.18,6.2,SSW,12.7,-,N/A,,Scattered Clouds,200,2013-07-03 00:00:00
10:30 AM,66.2,57.2,73,30.18,6.2,SSW,13.8,-,N/A,,Scattered Clouds,210,2013-07-03 00:30:00
11:00 AM,68.0,59.0,73,30.18,6.2,SSW,13.8,-,N/A,,Scattered Clouds,200,2013-07-03 01:00:00
11:30 AM,68.0,57.2,68,30.18,6.2,South,12.7,-,N/A,,Scattered Clouds,190,2013-07-03 01:30:00
12:00 PM,68,57,60,30.19,,South,13.8,,,,,180,2013-07-03 02:00:00
12:00 PM,68.0,57.2,68,30.18,6.2,South,13.8,-,N/A,,Mostly Cloudy,180,2013-07-03 02:00:00
12:30 PM,69.8,59.0,68,30.15,6.2,South,13.8,-,N/A,,Overcast,180,2013-07-03 02:30:00
1:00 PM,71.6,59.0,64,30.15,6.2,South,16.1,-,N/A,,Mostly Cloudy,170,2013-07-03 03:00:00
1:30 PM,71.6,59.0,64,30.15,6.2,South,15.0,-,N/A,,Unknown,170,2013-07-03 03:30:00
2:00 PM,71.6,59.0,64,30.15,6.2,South,13.8,-,N/A,,Scattered Clouds,170,2013-07-03 04:00:00
2:30 PM,69.8,59.0,68,30.15,6.2,SSE,11.5,-,N/A,,Scattered Clouds,160,2013-07-03 04:30:00
3:00 PM,69,60,65,30.17,,South,12.7,,,,,170,2013-07-03 05:00:00
3:00 PM,69.8,59.0,68,30.15,6.2,South,12.7,-,N/A,,Scattered Clouds,170,2013-07-03 05:00:00
3:30 PM,68.0,59.0,73,30.15,6.2,South,12.7,-,N/A,,Mostly Cloudy,180,2013-07-03 05:30:00
4:00 PM,66.2,59.0,78,30.15,6.2,South,11.5,-,N/A,,Overcast,180,2013-07-03 06:00:00
4:30 PM,66.2,59.0,78,30.15,6.2,South,9.2,-,N/A,,Overcast,180,2013-07-03 06:30:00
5:00 PM,66.2,59.0,78,30.18,6.2,South,8.1,-,N/A,,Overcast,190,2013-07-03 07:00:00
5:30 PM,66.2,59.0,78,30.18,6.2,South,9.2,-,N/A,,Overcast,190,2013-07-03 07:30:00
6:00 PM,65,59,75,30.19,,SSW,9.2,,,,,200,2013-07-03 08:00:00
6:00 PM,64.4,59.0,83,30.18,6.2,SSW,9.2,-,N/A,,Overcast,200,2013-07-03 08:00:00
6:30 PM,64.4,59.0,83,30.18,6.2,SSW,10.4,-,N/A,,Overcast,200,2013-07-03 08:30:00
7:00 PM,64.4,59.0,83,30.18,6.2,SSW,10.4,-,N/A,,Scattered Clouds,200,2013-07-03 09:00:00
7:30 PM,64.4,59.0,83,30.18,6.2,SSW,8.1,-,N/A,,Mostly Cloudy,200,2013-07-03 09:30:00
8:00 PM,64.4,59.0,83,30.18,6.2,SSW,9.2,-,N/A,,Overcast,210,2013-07-03 10:00:00
8:30 PM,64.4,57.2,77,30.18,6.2,South,8.1,-,N/A,,Overcast,190,2013-07-03 10:30:00
9:00 PM,65,58,71,30.22,,SSW,8.1,,,,Overcast,210,2013-07-03 11:00:00
9:00 PM,64.4,57.2,77,30.21,6.2,SSW,8.1,-,N/A,,Overcast,210,2013-07-03 11:00:00
9:30 PM,64.4,57.2,77,30.21,6.2,South,6.9,-,N/A,,Overcast,190,2013-07-03 11:30:00
10:00 PM,64.4,57.2,77,30.21,6.2,SSW,6.9,-,N/A,,Scattered Clouds,200,2013-07-03 12:00:00
10:30 PM,64.4,57.2,77,30.21,6.2,South,6.9,-,N/A,,Mostly Cloudy,190,2013-07-03 12:30:00
11:00 PM,64.4,57.2,77,30.21,6.2,South,4.6,-,N/A,,Overcast,190,2013-07-03 13:00:00
11:30 PM,64.4,57.2,77,30.18,6.2,SW,5.8,-,N/A,,Overcast,220,2013-07-03 13:30:00